This is the latest recevied weather packets stored in our database for station/object N2PPN. If no packets are shown the sender has not sent any weather packets the latest 10 day(s).
| Time | Temp. | Humidity | Pressure | Rain* | Wind** | Luminosity | Snow |
|---|---|---|---|---|---|---|---|
| 1777115931 | 8.89° C | 74% | 1019.7 hPa | 0 mm | - | 97 W/m² | - |
| 1777115626 | 8.33° C | 73% | 1019.6 hPa | 0 mm | - | 91 W/m² | - |
| 1777115322 | 7.78° C | 76% | 1019.6 hPa | 0 mm | - | 70 W/m² | - |
| 1777115019 | 7.78° C | 75% | 1019.5 hPa | 0 mm | - | 47 W/m² | - |
| 1777114716 | 7.78° C | 76% | 1019.5 hPa | 0 mm | - | 47 W/m² | - |
| 1777114411 | 7.78° C | 76% | 1019.5 hPa | 0 mm | - | 41 W/m² | - |
| 1777114107 | 7.78° C | 76% | 1019.5 hPa | 0 mm | - | 39 W/m² | - |
| 1777113803 | 7.78° C | 75% | 1019.5 hPa | 0 mm | - | 31 W/m² | - |
| 1777113502 | 7.78° C | 74% | 1019.6 hPa | 0 mm | - | 23 W/m² | - |
| 1777113197 | 7.78° C | 74% | 1019.3 hPa | 0 mm | - | 19 W/m² | - |
| 1777112892 | 7.78° C | 73% | 1019.3 hPa | 0 mm | - | 15 W/m² | - |
| 1777112590 | 7.78° C | 73% | 1019.2 hPa | 0 mm | - | 11 W/m² | - |
| 1777112285 | 7.78° C | 72% | 1019.2 hPa | 0 mm | - | 8 W/m² | - |
| 1777111983 | 7.78° C | 72% | 1019.1 hPa | 0 mm | - | 7 W/m² | - |
| 1777111679 | 7.78° C | 71% | 1018.9 hPa | 0 mm | - | 4 W/m² | - |
| 1777111375 | 7.78° C | 70% | 1018.7 hPa | 0 mm | - | 3 W/m² | - |
| 1777111071 | 7.78° C | 69% | 1018.9 hPa | 0 mm | - | 2 W/m² | - |
| 1777110768 | 7.78° C | 70% | 1018.7 hPa | 0 mm | - | 1 W/m² | - |
| 1777110464 | 7.78° C | 70% | 1018.7 hPa | 0 mm | - | 0 W/m² | - |
| 1777110163 | 7.78° C | 71% | 1018.8 hPa | 0 mm | - | 0 W/m² | - |
| 1777109859 | 7.78° C | 74% | 1019.1 hPa | 0 mm | - | 0 W/m² | - |
| 1777109556 | 7.78° C | 74% | 1018.7 hPa | 0 mm | - | 0 W/m² | - |
| 1777109252 | 7.78° C | 75% | 1019 hPa | 0 mm | - | 0 W/m² | - |
| 1777108947 | 7.78° C | 75% | 1019 hPa | 0 mm | - | 0 W/m² | - |
| 1777108643 | 7.78° C | 75% | 1018.9 hPa | 0 mm | - | 0 W/m² | - |
* Rain latest hour (hover to see other rain measurements)
** Current wind speed in m/s (hover to see current wind gust speed)